Location: Unspecified
(49.2170°N, 0.0000°E)
Time: 01:04:19
(UTC+00:00)

Explorer 7 - Pass Details

Date: 24 January 2021
Orbit: 484 x 677 km, 50.3° (Epoch: 06 March)

Event Time Altitude Azimuth Distance (km) Brightness Sun altitude
Exits shadow 06:10:52 22° 252° (WSW) 1,144 7.9 -14.6°
Maximum altitude 06:13:17 86° 168° (SSE) 532 6.7 -14.2°
Drops below altitude 10° 06:17:25 10° 77° (ENE) 1,822 10.5 -13.5°
Sets 06:19:44 0° 77° (ENE) 2,753 11.6 -13.2°
